[[{"header":{"parameterUnit":"m.s-1","parameterCategory":1,"la1":30.2991,"la2":30.254,"lo1":-89.0895,"lo2":-89.0444,"dy":0.0017,"dx":0.0017,"nx":28,"ny":28,"refTime":"2024-05-23T03:00:00:Z","depth":0,"parameterNumber":2,"parameterNumberName":"U-component_of_WINDS"},"data":[0,0,0,0,0,0,0,0,0,0,0,0,0,0,0,0,0,0,0,0,0,0,0,0,0,0,0,0,0,0,0,0,0,0,0,0,0,0,0,0,0,0,0,0,0,0,0,0,0,0,0,0,0,0,0,0,0,0,-1.2469,-1.2469,0,-1.2394,-1.2393,-1.2393,-1.2346,-1.2345,-1.2345,-1.2345,-1.2267,-1.2265,-1.2264,0,0,0,0,0,0,0,0,0,0,0,0,0,-1.2573,-1.2572,-1.247,-1.2469,-1.2468,-1.2394,-1.2393,-1.2392,-1.2346,-1.2345,-1.2345,-1.2345,-1.2268,-1.2266,-1.2263,0,0,0,0,0,0,0,0,0,0,0,0,0,-1.2516,-1.2571,-1.247,-1.2436,-1.2432,-1.2395,-1.2393,-1.2392,-1.2346,-1.2345,-1.2345,-1.2345,-1.2269,-1.2266,-1.2263,-1.2254,0,0,-1.2255,-1.2254,0,0,0,0,0,0,0,0,-1.252,-1.2512,-1.2442,-1.2438,-1.2434,-1.2379,-1.2401,-1.2346,-1.2346,-1.2378,-1.2345,-1.2344,-1.2305,-1.2299,-1.2286,-1.225,-1.2247,-1.2254,-1.2253,-1.2252,-1.2251,0,0,0,0,0,0,0,-1.2524,-1.2515,-1.244,-1.2441,-1.2436,-1.2424,-1.2416,-1.2391,-1.2345,-1.2376,-1.2372,-1.2364,-1.2302,-1.2288,-1.2283,-1.2246,-1.2255,-1.2252,-1.225,-1.2249,-1.22,-1.22,0,0,0,0,0,0,-1.2533,-1.2519,-1.2442,-1.2437,-1.2476,-1.2423,-1.2413,-1.2397,-1.2345,-1.2336,-1.2364,-1.2362,-1.2293,-1.2287,-1.2281,-1.2267,-1.2252,-1.2249,-1.2248,-1.22,-1.22,-1.22,0,0,0,0,0,0,-1.2535,-1.2526,-1.2445,-1.2477,-1.2466,-1.2421,-1.2403,-1.2396,-1.2381,-1.2336,-1.2328,-1.2358,-1.2293,-1.2284,-1.2261,-1.2263,-1.2248,-1.2245,-1.2199,-1.22,-1.22,-1.2239,0,0,0,0,0,0,-1.2539,-1.2528,-1.2523,-1.2478,-1.2465,-1.2427,-1.2404,-1.2394,-1.2377,-1.2373,-1.2328,-1.2321,-1.2292,-1.2265,-1.2258,-1.2259,-1.2243,-1.2199,-1.2199,-1.22,-1.2237,-1.224,-1.2243,0,0,0,0,0,-1.2542,-1.2537,-1.2523,-1.2514,-1.2458,-1.2427,-1.242,-1.2387,-1.2377,-1.2373,-1.2344,-1.2322,-1.2264,-1.2263,-1.2255,-1.2255,-1.2199,-1.2199,-1.22,-1.2235,-1.224,-1.2243,0,0,0,0,0,0,-1.2584,-1.253,-1.2515,-1.2494,-1.2466,-1.2419,-1.2412,-1.2392,-1.2366,-1.2363,-1.2323,-1.2314,-1.2295,-1.2272,-1.2272,-1.2244,-1.2229,-1.2228,-1.2259,-1.2262,-1.2266,-1.2271,-1.2241,0,0,0,0,0,-1.2591,-1.257,-1.2524,-1.2511,-1.2497,-1.2458,-1.2443,-1.242,-1.2389,-1.2376,-1.2346,-1.2316,-1.2291,-1.2276,-1.225,-1.2234,-1.2224,-1.223,-1.2233,-1.2236,-1.2235,-1.2226,-1.2228,-1.2203,-1.2203,-1.2203,0,0,-1.2604,-1.2573,-1.2562,-1.2518,-1.2493,-1.2473,-1.2448,-1.2427,-1.2411,-1.2373,-1.2349,-1.2326,-1.229,-1.2271,-1.226,-1.2252,-1.224,-1.2237,-1.2239,-1.2237,-1.2227,-1.2229,-1.2231,-1.2203,-1.2203,-1.2203,0,0,-1.2619,-1.2593,-1.2579,-1.2555,-1.2517,-1.2491,-1.2488,-1.2445,-1.2428,-1.2404,-1.2375,-1.2357,-1.2315,-1.2291,-1.2273,-1.228,-1.2259,-1.2273,-1.2289,-1.228,-1.2282,-1.2284,-1.2286,-1.2288,-1.2273,-1.2273,-1.2273,0,-1.264,-1.2608,-1.2574,-1.2555,-1.2537,-1.2502,-1.2488,-1.2466,-1.2423,-1.2411,-1.2403,-1.235,-1.2323,-1.2298,-1.23,-1.2287,-1.2282,-1.2277,-1.2285,-1.2286,-1.2287,-1.2289,-1.229,-1.2275,-1.2275,-1.2275,-1.2274,0,-1.2637,-1.2615,-1.2608,-1.2568,-1.2549,-1.2532,-1.2496,-1.2481,-1.2461,-1.2436,-1.2412,-1.2379,-1.2347,-1.234,-1.2319,-1.2312,-1.2307,-1.2292,-1.2276,-1.2292,-1.2293,-1.2294,-1.2278,-1.2277,-1.2276,-1.2276,0,0,-1.2674,-1.2616,-1.2614,-1.2595,-1.2552,-1.2535,-1.2517,-1.2486,-1.2474,-1.2446,-1.2431,-1.2397,-1.2383,-1.2363,-1.234,-1.2332,-1.234,-1.2318,-1.2316,-1.2323,-1.233,-1.2341,-1.2343,-1.2326,-1.2326,-1.2326,-1.2333,0,-1.2682,-1.2648,-1.2617,-1.2595,-1.2575,-1.2542,-1.2527,-1.25,-1.2476,-1.2456,-1.243,-1.2407,-1.239,-1.2378,-1.2369,-1.2341,-1.2341,-1.234,-1.2311,-1.2311,-1.232,-1.2343,-1.2355,-1.2363,-1.2333,-1.2333,-1.2333,0,-1.2686,-1.266,-1.2635,-1.2595,-1.2586,-1.2573,-1.2542,-1.2523,-1.2491,-1.2475,-1.2454,-1.243,-1.241,-1.2397,-1.237,-1.237,-1.2356,-1.2341,-1.2341,-1.2336,-1.2322,-1.2339,-1.2364,-1.2365,-1.2334,-1.2334,-1.2334,0,-1.2716,-1.2674,-1.2654,-1.2639,-1.2592,-1.2584,-1.2564,-1.2532,-1.2516,-1.2489,-1.2478,-1.245,-1.2434,-1.2413,-1.2382,-1.2376,-1.2358,-1.2343,-1.2344,-1.2345,-1.2341,-1.2341,-1.2364,-1.2333,-1.2333,-1.2333,-1.2333,0,-1.2727,-1.2714,-1.2667,-1.2655,-1.2639,-1.2604,-1.259,-1.2567,-1.2539,-1.2522,-1.2493,-1.2477,-1.2438,-1.2418,-1.2393,-1.2375,-1.2368,-1.2354,-1.2348,-1.2356,-1.2358,-1.2346,-1.2345,-1.2334,-1.2334,-1.2333,-1.2333,0,-1.2757,-1.2725,-1.2702,-1.266,-1.2649,-1.2639,-1.2603,-1.259,-1.2566,-1.2545,-1.2538,-1.2499,-1.2475,-1.2442,-1.2407,-1.2391,-1.2375,-1.2365,-1.2385,-1.2381,-1.2385,-1.2385,-1.24,-1.24,-1.237,-1.2371,-1.2371,0,-1.2767,-1.2756,-1.2712,-1.2699,-1.268,-1.2659,-1.2642,-1.2608,-1.2592,-1.2556,-1.2548,-1.2521,-1.2497,-1.246,-1.2429,-1.2402,-1.2391,-1.2398,-1.2387,-1.2396,-1.2391,-1.2392,-1.2391,-1.2401,-1.2401,-1.2402,-1.2402,0,-1.2787,-1.2772,-1.2749,-1.2721,-1.2702,-1.2678,-1.2653,-1.2644,-1.2604,-1.2588,-1.2562,-1.2544,-1.2509,-1.2483,-1.2452,-1.2432,-1.2411,-1.2406,-1.2405,-1.2414,-1.2426,-1.2419,-1.2393,-1.2406,-1.2405,-1.2405,-1.2405,-1.2405,-1.2807,-1.2796,-1.2764,-1.2739,-1.2717,-1.2694,-1.268,-1.2655,-1.2633,-1.2601,-1.2583,-1.2558,-1.2528,-1.2484,-1.2465,-1.2446,-1.2437,-1.2436,-1.2435,-1.2435,-1.2438,-1.243,-1.244,-1.244,-1.244,-1.244,-1.2439,0,-1.2825,-1.2803,-1.2781,-1.2747,-1.2728,-1.2711,-1.2682,-1.2667,-1.2646,-1.262,-1.2597,-1.2569,-1.2543,-1.2511,-1.2484,-1.2474,-1.2464,-1.2468,-1.2468,-1.2464,-1.2447,-1.2451,-1.2477,-1.2477,-1.2477,-1.2477,-1.2477,-1.2477,-1.2833,-1.2813,-1.2794,-1.2764,-1.2742,-1.2717,-1.2703,-1.2682,-1.266,-1.263,-1.2609,-1.2588,-1.2559,-1.253,-1.2506,-1.2497,-1.2488,-1.2495,-1.2484,-1.2468,-1.2465,-1.2462,-1.2465,-1.2494,-1.2494,-1.2502,-1.2502,-1.2502]},{"header":{"parameterUnit":"m.s-1","parameterCategory":1,"la1":30.2991,"la2":30.254,"lo1":-89.0895,"lo2":-89.0444,"dy":0.0017,"dx":0.0017,"nx":28,"ny":28,"refTime":"2024-05-23T03:00:00:Z","depth":0,"parameterNumber":3,"parameterNumberName":"V-component_of_WINDS"},"data":[0,0,0,0,0,0,0,0,0,0,0,0,0,0,0,0,0,0,0,0,0,0,0,0,0,0,0,0,0,0,0,0,0,0,0,0,0,0,0,0,0,0,0,0,0,0,0,0,0,0,0,0,0,0,0,0,0,0,2.9123,2.9123,0,2.9091,2.909,2.909,2.9045,2.9044,2.9043,2.9042,2.9008,2.9008,2.9008,0,0,0,0,0,0,0,0,0,0,0,0,0,2.9145,2.9145,2.9123,2.9123,2.9122,2.9091,2.909,2.909,2.9045,2.9044,2.9043,2.9042,2.9008,2.9008,2.9008,0,0,0,0,0,0,0,0,0,0,0,0,0,2.9126,2.9144,2.9123,2.9096,2.9093,2.9091,2.909,2.909,2.9045,2.9044,2.9043,2.9042,2.9009,2.9008,2.9008,2.9029,0,0,2.9007,2.9007,0,0,0,0,0,0,0,0,2.9127,2.9125,2.91,2.9098,2.9095,2.9071,2.9085,2.907,2.9045,2.9063,2.9042,2.9041,2.903,2.9028,2.9024,2.9028,2.9026,2.9007,2.9007,2.9007,2.9007,0,0,0,0,0,0,0,2.9129,2.9127,2.911,2.91,2.9096,2.9085,2.9081,2.9082,2.9053,2.9062,2.9058,2.9055,2.9028,2.9025,2.9023,2.9026,2.9007,2.9007,2.9007,2.9007,2.9045,2.9046,0,0,0,0,0,0,2.9134,2.9128,2.9111,2.9109,2.9108,2.9086,2.9081,2.9079,2.9053,2.9048,2.9056,2.9053,2.9026,2.9024,2.9022,2.9045,2.9007,2.9007,2.9006,2.9044,2.9046,2.9047,0,0,0,0,0,0,2.9135,2.9133,2.9112,2.9118,2.9114,2.9086,2.9085,2.9079,2.9076,2.9049,2.9044,2.9058,2.9025,2.9022,2.9028,2.9043,2.9006,2.9006,2.9043,2.9045,2.9046,2.9092,0,0,0,0,0,0,2.9135,2.9133,2.9141,2.9118,2.9114,2.9119,2.9086,2.908,2.9076,2.9071,2.9049,2.9045,2.9024,2.9029,2.9028,2.9042,2.9006,2.9041,2.9044,2.9046,2.9089,2.9095,2.91,0,0,0,0,0,2.9136,2.9155,2.9142,2.914,2.9124,2.912,2.9118,2.9094,2.9077,2.9085,2.9068,2.9045,2.9042,2.903,2.9028,2.9043,2.904,2.9043,2.9045,2.9086,2.9094,2.91,0,0,0,0,0,0,2.9181,2.9152,2.9137,2.9149,2.9138,2.9113,2.9122,2.9103,2.9095,2.9092,2.9062,2.9057,2.9067,2.9055,2.9042,2.9062,2.9038,2.904,2.9069,2.9076,2.9081,2.9084,2.9006,0,0,0,0,0,2.9192,2.9192,2.9167,2.918,2.9175,2.915,2.9147,2.913,2.9117,2.9111,2.9095,2.9083,2.9079,2.9077,2.9072,2.9087,2.9081,2.9096,2.9102,2.9107,2.9109,2.9116,2.9123,2.9056,2.9056,2.9056,0,0,2.9215,2.9199,2.9201,2.9188,2.9177,2.9178,2.9146,2.9148,2.9148,2.9112,2.9116,2.9104,2.9088,2.9099,2.9102,2.9089,2.9127,2.911,2.9114,2.9114,2.912,2.9126,2.9132,2.9058,2.9057,2.9057,0,0,2.9257,2.9246,2.9255,2.9245,2.9229,2.9212,2.9215,2.9193,2.9183,2.9188,2.916,2.916,2.9154,2.9144,2.9138,2.9177,2.9156,2.9177,2.9206,2.9213,2.9218,2.9223,2.9237,2.9242,2.9179,2.9179,2.9179,0,2.9288,2.9288,2.9262,2.9266,2.9261,2.9229,2.9238,2.923,2.9213,2.921,2.9196,2.9188,2.9175,2.9183,2.9193,2.9189,2.9191,2.9179,2.922,2.9224,2.9228,2.9241,2.9246,2.9182,2.9182,2.9181,2.9181,0,2.9326,2.9327,2.9336,2.9321,2.9317,2.9324,2.9299,2.9298,2.9282,2.9266,2.9271,2.9254,2.9245,2.9246,2.9229,2.9252,2.9244,2.9226,2.92,2.9237,2.9249,2.9253,2.9185,2.9185,2.9184,2.9183,0,0,2.9394,2.9366,2.937,2.9362,2.9343,2.9343,2.9348,2.934,2.9339,2.9329,2.9332,2.9329,2.9311,2.9305,2.9287,2.9293,2.9325,2.9273,2.9273,2.9283,2.9348,2.9362,2.9368,2.9311,2.9312,2.9313,2.9349,0,2.9432,2.944,2.9417,2.943,2.943,2.94,2.9404,2.9393,2.9379,2.9376,2.9361,2.9358,2.9336,2.9332,2.9337,2.932,2.9337,2.9317,2.9313,2.9314,2.9318,2.9374,2.9388,2.9423,2.9353,2.9354,2.9355,0,2.9477,2.947,2.9483,2.9463,2.9462,2.9467,2.9457,2.9456,2.9442,2.9431,2.9424,2.9403,2.9407,2.9383,2.9387,2.9374,2.9371,2.9363,2.9364,2.9362,2.9336,2.9373,2.9434,2.9439,2.9361,2.9361,2.936,0,2.9525,2.9519,2.9526,2.9521,2.9497,2.9501,2.9492,2.9477,2.9473,2.9465,2.9463,2.9455,2.9451,2.9445,2.9423,2.9408,2.9429,2.9404,2.942,2.942,2.9425,2.9425,2.9486,2.9425,2.9425,2.9424,2.9424,0,2.957,2.9579,2.9547,2.9551,2.956,2.9535,2.9544,2.9532,2.9519,2.952,2.9494,2.9495,2.9466,2.9464,2.9446,2.9452,2.945,2.9441,2.9437,2.9444,2.9445,2.9441,2.9438,2.9426,2.9425,2.9425,2.9425,0,2.9625,2.9604,2.9609,2.9587,2.9582,2.959,2.9571,2.9573,2.9558,2.956,2.9558,2.9534,2.953,2.9508,2.9499,2.9487,2.9499,2.949,2.9504,2.9501,2.9518,2.9516,2.9578,2.9585,2.952,2.952,2.9521,0,2.9654,2.966,2.9639,2.9638,2.963,2.9629,2.9625,2.96,2.9598,2.9583,2.9587,2.9582,2.9576,2.9572,2.9553,2.9546,2.9536,2.9558,2.9535,2.9541,2.9536,2.9535,2.9536,2.9563,2.9564,2.9564,2.9565,0,2.9708,2.9698,2.9694,2.9687,2.9683,2.9676,2.9667,2.9668,2.964,2.9639,2.9635,2.9631,2.9622,2.9617,2.9607,2.9596,2.9576,2.9573,2.9576,2.9583,2.959,2.9586,2.9517,2.9571,2.957,2.957,2.957,2.9569,2.9751,2.9755,2.9741,2.9738,2.9729,2.9721,2.9723,2.9708,2.9704,2.9696,2.9681,2.9679,2.9665,2.965,2.9642,2.964,2.9628,2.9633,2.9634,2.9635,2.9639,2.9591,2.9638,2.9638,2.9637,2.9637,2.9637,0,2.9803,2.9793,2.979,2.9779,2.9776,2.9758,2.9748,2.9746,2.9746,2.9735,2.973,2.9725,2.972,2.9702,2.9694,2.9696,2.9687,2.9695,2.9695,2.9693,2.965,2.9648,2.9703,2.9703,2.9703,2.9703,2.9703,2.9703,2.983,2.9837,2.9824,2.9826,2.9815,2.9814,2.9809,2.9802,2.9793,2.979,2.9786,2.9774,2.976,2.9751,2.9746,2.974,2.9738,2.975,2.9741,2.9702,2.9696,2.9689,2.9687,2.975,2.975,2.9784,2.9784,2.9785]}]]